Clinton-Sherman, OK

3:28 AM CST on December 12, 2017 (GMT -0600)
Clinton-Sherman

Weather History for KCSM - January, 2014

Change the Weather History Date:

Saturday, January 11, 2014

  Actual Average Record
Temperature  
Mean Temperature 48 °F -  
Max Temperature 62 °F 46 °F 73 °F (2017)
Min Temperature 35 °F 27 °F 8 °F (2011)
Degree Days  
Heating Degree Days 16    
Moisture  
Dew Point 18 °F    
Average Humidity 34    
Maximum Humidity 48    
Minimum Humidity 16    
Precipitation  
Precipitation 0.00 in - - ()
Sea Level Pressure  
Sea Level Pressure 30.00 in    
Wind  
Wind Speed 14 mph (West)    
Max Wind Speed 18 mph    
Max Gust Speed 32 mph    
Visibility 10 miles    
Events      
Averages and records for this station are not official NWS values.
T = Trace of Precipitation, MM = Missing Value Source: NWS Daily Summary

Daily Weather History Graph

Daily Weather History Graph

Search for Another Location

Airport or City:

Trip Planner

Search our weather history database for the weather conditions in past years. The results will help you decide how hot, cold, wet, or windy it might be!

Date:

Astronomy

Jan. 11, 2014 Rise Set
Actual Time 7:45 AM CST 5:43 PM CST
Civil Twilight 7:18 AM CST 6:11 PM CST
Nautical Twilight 6:46 AM CST 6:43 PM CST
Astronomical Twilight 6:16 AM CST 7:13 PM CST
Moon 2:27 PM CST (1/11) 3:54 AM CST (1/11)
Length of Visible Light 10h 53m
Length of Day
9h 58m
Waxing Gibbous, 83% of the Moon is Illuminated
Jan 11
Waxing Gibbous
Jan 15
Full
Jan 23
Last Quarter
Jan 30
New
Feb 6
First Quarter

Hourly Weather History & Observations

Time (CST) Temp. Windchill Dew Point Humidity Pressure Visibility Wind Dir Wind Speed Gust Speed Precip Events Conditions
12:53 AM 37.9 °F 28.9 °F 15.1 °F 39% 29.88 in 10.0 mi West 16.1 mph 32.2 mph N/A   Clear
1:53 AM 37.0 °F 29.3 °F 16.0 °F 42% 29.90 in 10.0 mi WNW 11.5 mph - N/A   Clear
2:53 AM 37.9 °F 29.6 °F 17.1 °F 43% 29.93 in 10.0 mi WNW 13.8 mph - N/A   Clear
3:53 AM 37.0 °F 28.9 °F 17.1 °F 44% 29.94 in 10.0 mi WNW 12.7 mph - N/A   Clear
4:53 AM 36.0 °F 27.5 °F 18.0 °F 48% 29.96 in 10.0 mi West 12.7 mph - N/A   Clear
5:53 AM 37.0 °F 27.7 °F 17.1 °F 44% 30.00 in 10.0 mi West 16.1 mph - N/A   Clear
6:53 AM 39.0 °F 31.0 °F 16.0 °F 39% 30.02 in 10.0 mi West 13.8 mph - N/A   Clear
7:53 AM 35.1 °F 26.4 °F 17.1 °F 48% 30.05 in 10.0 mi West 12.7 mph - N/A   Clear
8:53 AM 41.0 °F 34.7 °F 19.0 °F 41% 30.07 in 10.0 mi West 10.4 mph - N/A   Clear
9:53 AM 50.0 °F - 19.0 °F 29% 30.09 in 10.0 mi NW 17.3 mph - N/A   Clear
10:53 AM 52.0 °F - 19.9 °F 28% 30.11 in 10.0 mi NW 16.1 mph - N/A   Clear
11:53 AM 55.0 °F - 21.0 °F 27% 30.10 in 10.0 mi NW 11.5 mph - N/A   Clear
12:53 PM 59.0 °F - 19.9 °F 22% 30.07 in 10.0 mi NW 13.8 mph - N/A   Clear
1:53 PM 61.0 °F - 18.0 °F 19% 30.04 in 10.0 mi NW 17.3 mph - N/A   Clear
2:53 PM 62.1 °F - 16.0 °F 17% 30.03 in 10.0 mi NW 11.5 mph - N/A   Clear
3:53 PM 62.1 °F - 15.1 °F 16% 30.02 in 10.0 mi West 6.9 mph - N/A   Clear
4:53 PM 59.0 °F - 19.9 °F 22% 30.02 in 10.0 mi SW 8.1 mph - N/A   Clear
5:53 PM 46.0 °F 41.9 °F 19.9 °F 35% 30.02 in 10.0 mi SSW 8.1 mph - N/A   Clear
6:53 PM 46.0 °F 40.6 °F 21.0 °F 37% 30.02 in 10.0 mi South 11.5 mph - N/A   Clear
7:53 PM 44.1 °F 38.1 °F 21.0 °F 40% 30.01 in 10.0 mi South 11.5 mph - N/A   Clear
8:53 PM 46.0 °F 39.3 °F 19.9 °F 35% 29.99 in 10.0 mi South 16.1 mph - N/A   Clear
9:53 PM 45.0 °F 38.2 °F 19.0 °F 36% 29.96 in 10.0 mi South 15.0 mph - N/A   Clear
10:53 PM 45.0 °F 37.6 °F 19.0 °F 36% 29.94 in 10.0 mi South 17.3 mph - N/A   Clear
11:53 PM 45.0 °F 37.4 °F 19.9 °F 37% 29.91 in 10.0 mi South 18.4 mph - N/A   Clear